1534942800.22,63994,23.69,74644.5,16.63,11.57,10.99,0,*4D
1534942801.47,63995,23.69,74646.3,16.65,11.37,10.65,0,*4F
1534942802.68,63996,23.69,74644.5,16.67,11.81,11.17,0,*47
1534942803.9,63997,23.69,74642.0,16.69,11.79,11.09,0,*40
1534942805.12,63998,23.69,74644.5,16.71,12.03,10.89,0,*41
1534942806.31,63999,23.69,74644.3,16.73,11.93,9.99,0,*71
1534942807.55,64000,23.69,74646.8,16.77,12.37,9.43,0,*71
1534942808.81,64001,23.69,74650.0,16.85,12.57,8.47,0,*7E
1534942810.05,64002,23.69,74648.0,16.87,11.61,6.65,0,*77
1534942811.28,64003,23.69,74648.8,16.93,11.27,5.45,0,*70
1534942812.52,64004,23.69,74648.8,16.97,9.21,2.39,0,*40
1534942813.73,64005,23.69,74652.0,17.05,8.69,1.43,0,*48
1534942814.99,64006,23.69,74650.8,17.11,8.75,1.51,0,*40
1534942816.18,64007,23.69,74652.3,17.17,7.41,0.33,0,*7A
1534942817.38,64008,23.69,74652.5,17.21,5.45,-1.09,0,*63
1534942818.59,64009,23.69,74652.5,17.29,2.27,-3.71,0,*64
1534942819.82,64010,23.69,74646.0,17.31,0.83,-4.13,0,*5A
1534942820.99,64011,23.69,74648.0,17.33,0.43,-3.35,0,*56
1534942822.23,64012,23.69,74648.0,17.37,-1.01,-3.67,0,*4C
1534942823.44,64013,23.69,74650.3,17.41,-1.95,-3.35,0,*46
1534942824.69,64014,23.69,74650.3,17.43,-1.71,-2.11,0,*4E
1534942825.88,64015,23.69,74648.8,17.49,-1.63,-1.29,0,*4E
1534942827.08,64016,23.69,74650.0,17.53,-4.21,-3.35,0,*4A
1534942828.31,64017,23.69,74648.0,17.57,-5.69,-4.41,0,*46
1534942829.52,64018,23.69,74650.0,17.55,-6.13,-4.49,0,*4D
1534942830.77,64019,23.69,74652.0,17.55,-6.19,-3.95,0,*40
1534942832.01,64020,23.69,74652.8,17.55,-6.31,-3.55,0,*4C
1534942833.23,64021,23.69,74650.8,17.57,-6.01,-2.63,0,*48
1534942834.46,64022,23.69,74650.3,17.57,-6.51,-2.51,0,*4F
1534942835.73,64023,23.69,74646.5,17.59,-9.83,-5.11,0,*43
1534942836.94,64024,23.69,74648.8,17.55,-9.67,-3.95,0,*48
1534942838.19,64025,23.69,74648.5,17.55,-8.59,-2.07,0,*4F
1534942839.42,64026,23.69,74648.3,17.53,-9.11,-1.59,0,*4F
1534942840.62,64027,23.69,74648.0,17.53,-10.35,-2.19,0,*77
1534942841.88,64028,23.69,74648.3,17.51,-10.75,-1.59,0,*79
1534942843.06,64029,23.69,74650.3,17.49,-10.35,-0.73,0,*4C
1534942844.26,64030,23.69,74646.0,17.45,-10.31,-0.07,0,*7F
1534942845.49,64031,23.69,74648.5,17.43,-9.27,1.17,0,*6A
1534942846.73,64032,23.69,74646.8,17.39,-8.63,2.05,0,*65
1534942847.99,64033,23.69,74646.3,17.35,-7.31,3.23,0,*65
1534942849.21,64034,23.69,74646.8,17.35,-6.01,4.41,0,*63
1534942850.48,64035,23.69,74646.5,17.31,-5.07,5.01,0,*66
1534942851.73,64036,23.69,74644.3,17.31,-1.75,7.61,0,*60
1534942852.93,64037,23.69,74646.0,17.33,-0.19,8.47,0,*53
1534942854.11,64038,23.69,74640.5,17.33,-0.53,7.55,0,*5E
1534942855.34,64039,23.69,74644.3,17.33,0.87,8.13,0,*76
1534942856.58,64040,23.69,74640.0,17.33,1.13,7.83,0,*42
1534942857.84,64041,23.69,74644.5,17.35,1.51,7.73,0,*4C
1534942859.04,64042,23.69,74640.3,17.33,2.73,8.61,0,*46
1534942860.24,64043,23.69,74640.5,17.33,2.69,8.01,0,*4A
1534942861.48,64044,23.69,74642.8,17.33,2.59,7.69,0,*4F
1534942862.73,64045,23.69,74646.0,17.31,3.49,8.41,0,*49
1534942863.93,64046,23.69,74646.0,17.33,3.97,8.61,0,*49
1534942865.15,64047,23.69,74642.8,17.31,3.85,8.45,0,*4F
1534942866.38,64048,23.69,74644.8,17.31,3.75,8.23,0,*4F
1534942867.61,64049,23.69,74644.0,17.31,4.41,8.75,0,*4D
1534942868.82,64050,23.69,74646.3,17.29,4.75,8.79,0,*47
1534942870.04,64051,23.69,74646.8,17.29,5.27,8.89,0,*4F
1534942871.27,64052,23.69,74646.5,17.29,6.51,10.03,0,*75
1534942872.49,64053,23.69,74646.3,17.31,6.97,10.09,0,*7D
1534942873.73,64054,23.69,74648.0,17.31,6.97,9.89,0,*4A
1534942874.95,64055,23.69,74646.5,17.31,6.97,9.67,0,*4B
1534942876.16,64056,23.69,74644.3,17.31,7.45,9.99,0,*47
1534942877.37,64057,23.69,74646.8,17.33,8.47,10.69,0,*7E
1534942878.61,64058,23.69,74644.5,17.35,8.93,11.13,0,*72
1534942879.85,64059,23.69,74646.3,17.37,9.77,11.75,0,*7A
1534942881.09,64060,23.69,74648.8,17.41,9.81,11.37,0,*7E
1534942882.3,64061,23.69,74640.8,17.41,9.71,11.33,0,*74
1534942883.53,64062,23.69,74642.8,17.49,11.93,13.31,0,*4A
1534942884.8,64063,23.69,74642.8,17.55,12.83,13.95,0,*4A
1534942886.04,64064,23.69,74640.0,17.59,13.51,14.51,0,*40
1534942887.28,64065,23.69,74636.8,17.67,12.33,13.25,0,*4D
1534942888.49,64066,23.69,74640.5,17.69,11.65,12.17,0,*40
1534942889.71,64067,23.69,74642.0,17.75,10.61,11.13,0,*4E
1534942890.95,64068,23.69,74640.0,17.77,10.75,10.85,0,*48
1534942892.19,64069,23.69,74644.5,17.81,9.91,9.89,0,*46
1534942893.43,64070,23.69,74642.3,17.85,10.17,9.85,0,*70
1534942894.61,64071,23.69,74634.0,17.87,9.63,8.87,0,*4B
1534942895.87,64072,23.69,74634.3,17.89,8.75,7.77,0,*40
1534942897.04,64073,23.69,74630.3,17.91,7.41,5.71,0,*44
1534942898.22,64074,23.69,74632.5,17.91,5.63,3.29,0,*4A
1534942899.42,64075,23.69,74628.0,17.91,4.63,2.27,0,*45
1534942900.62,64076,23.69,74632.3,17.91,1.85,0.09,0,*45
1534942901.83,64077,23.69,74636.0,17.95,-0.41,-0.93,0,*4A
1534942903.02,64078,23.69,74638.0,17.91,-4.17,-4.41,0,*4D
1534942904.29,64079,23.69,74636.3,17.85,-5.77,-5.07,0,*4D
1534942905.51,64080,23.69,74636.0,17.81,-7.53,-5.43,0,*4B
1534942906.76,64081,23.69,74630.8,17.75,-7.77,-4.81,0,*48
1534942907.98,64082,23.69,74626.8,17.73,-7.23,-3.87,0,*4D
1534942909.2,64083,23.69,74628.0,17.67,-6.51,-2.87,0,*4C
1534942910.44,64084,23.69,74630.5,17.63,-6.27,-2.43,0,*46
1534942911.69,64085,23.69,74632.0,17.61,-5.69,-2.07,0,*4C
1534942912.92,64086,23.69,74632.0,17.53,-2.63,0.79,0,*55
1534942914.13,64087,23.69,74632.0,17.53,-0.19,2.47,0,*54
1534942915.36,64088,23.69,74632.5,17.53,1.59,3.79,0,*4F
1534942916.57,64089,23.69,74634.0,17.53,2.43,4.11,0,*4F
1534942917.78,64090,23.69,74636.5,17.53,3.15,4.23,0,*44
1534942919.0,64091,23.69,74634.3,17.55,4.15,5.23,0,*45
1534942920.21,64092,23.69,74634.8,17.55,4.53,5.41,0,*40
1534942921.45,64093,23.69,74636.3,17.55,3.59,4.31,0,*4A
1534942922.68,64094,23.69,74638.3,17.55,2.47,2.99,0,*47
1534942923.92,64095,23.69,74636.8,17.55,4.23,4.31,0,*46
1534942925.17,64096,23.69,74634.5,17.55,3.53,3.11,0,*40
1534942926.41,64097,23.69,74636.8,17.55,4.27,3.33,0,*45
1534942927.63,64098,23.69,74636.5,17.55,5.67,4.37,0,*4C
1534942928.83,64099,23.69,74636.3,17.59,5.07,4.19,0,*4B
1534942930.05,64100,23.69,74638.8,17.65,3.19,3.11,0,*43
1534942931.26,64101,23.69,74640.3,17.67,0.37,1.41,0,*78
1534942932.52,64102,23.69,74640.0,17.67,-1.39,0.83,0,*56
1534942933.75,64103,23.69,74638.3,17.67,-2.15,0.37,0,*55
1534942934.97,64104,23.69,74638.5,17.67,-0.65,1.59,0,*5E
1534942936.19,64105,23.69,74638.8,17.67,-0.29,1.71,0,*5D
1534942937.4,64106,23.69,74640.3,17.67,-0.61,0.67,0,*64
1534942938.64,64107,23.69,74640.5,17.67,0.25,1.17,0,*7E
1534942939.85,64108,23.69,74644.5,17.69,1.83,2.47,0,*44
1534942941.1,64109,23.69,74644.3,17.73,1.25,1.71,0,*44
1534942942.36,64110,23.69,74644.3,17.77,1.89,2.55,0,*4B
1534942943.6,64111,23.69,74642.5,17.81,0.37,1.43,0,*73
1534942944.84,64112,23.69,74640.3,17.85,0.67,1.37,0,*72
1534942946.08,64113,23.75,74644.8,17.89,0.75,1.93,0,*72
1534942947.3,64114,23.69,74642.3,17.89,-3.15,-1.59,0,*46
1534942948.53,64115,23.69,74644.0,17.87,-3.91,-1.91,0,*41
1534942949.79,64116,23.69,74646.3,17.85,-3.51,-1.13,0,*46
1534942951.03,64117,23.69,74650.3,17.81,-4.65,-1.95,0,*4D
1534942952.27,64118,23.69,74648.5,17.79,-4.81,-2.11,0,*40
1534942953.47,64119,23.69,74650.3,17.75,-4.61,-1.63,0,*45
1534942954.7,64120,23.69,74654.8,17.69,-4.73,-1.87,0,*4B
1534942955.94,64121,23.69,74650.3,17.69,-4.73,-1.43,0,*42
1534942957.14,64122,23.69,74654.5,17.65,-5.51,-1.67,0,*4A
1534942958.34,64123,23.69,74650.5,17.61,-4.13,-0.33,0,*78
1534942959.55,64124,23.69,74652.5,17.61,-2.43,1.47,0,*63
1534942960.78,64125,23.69,74650.8,17.59,-2.27,1.55,0,*68
1534942962.0,64126,23.69,74652.0,17.57,-3.63,-0.15,0,*7C
1534942963.2,64127,23.69,74648.8,17.53,-4.33,-1.21,0,*4D
1534942964.43,64128,23.69,74648.3,17.49,-1.87,0.95,0,*50
1534942965.68,64129,23.69,74648.0,17.43,0.51,3.03,0,*70
1534942966.91,64130,23.69,74648.5,17.43,1.63,3.89,0,*4A
1534942968.17,64131,23.69,74644.3,17.43,2.59,4.59,0,*4B
1534942969.37,64132,23.69,74648.0,17.43,2.35,4.27,0,*4B
1534942970.61,64133,23.69,74646.3,17.43,3.07,4.89,0,*4E
1534942971.84,64134,23.69,74648.0,17.43,2.69,4.45,0,*40
1534942973.05,64135,23.69,74644.3,17.41,3.15,4.89,0,*49
1534942974.23,64136,23.69,74644.3,17.41,2.31,3.85,0,*46
1534942975.45,64137,23.69,74644.3,17.41,1.37,2.95,0,*42
1534942976.68,64138,23.69,74646.0,17.35,1.43,3.29,0,*4B
1534942977.92,64139,23.69,74640.8,17.35,2.13,4.37,0,*44
1534942979.18,64140,23.69,74644.8,17.35,1.17,3.67,0,*4F
1534942980.4,64141,23.75,74644.8,17.33,0.63,3.67,0,*7A
1534942981.62,64142,23.69,74644.5,17.31,0.63,4.11,0,*7D
1534942982.84,64143,23.69,74642.5,17.27,0.67,4.37,0,*7B
1534942984.08,64144,23.69,74642.8,17.27,0.17,3.97,0,*76
1534942985.25,64145,23.69,74640.8,17.21,0.01,3.89,0,*49
1534942986.43,64146,23.75,74642.0,17.17,-0.03,3.81,0,*68
1534942987.66,64147,23.69,74642.8,17.15,0.25,3.93,0,*71
1534942988.85,64148,23.69,74642.0,17.13,0.01,3.53,0,*42
1534942990.04,64149,23.69,74640.5,17.07,0.59,3.93,0,*77
1534942991.27,64150,23.69,74642.3,17.05,1.43,4.45,0,*4B
1534942992.48,64151,23.69,74642.0,17.05,2.61,5.07,0,*4E
1534942993.66,64152,23.69,74638.5,16.99,2.35,4.49,0,*43
1534942994.91,64153,23.69,74640.8,16.97,3.25,5.01,0,*41
1534942996.15,64154,23.69,74642.0,16.97,3.75,5.11,0,*42
1534942997.34,64155,23.69,74644.5,16.95,4.19,5.07,0,*4B
1534942998.58,64156,23.69,74646.0,16.93,4.59,5.07,0,*4A
1534942999.79,64157,23.69,74642.8,16.91,4.45,4.59,0,*4E
1534943001.05,64158,23.75,74648.8,16.89,4.97,4.97,0,*45
1534943002.24,64159,23.69,74646.8,16.87,4.07,3.93,0,*40
1534943003.45,64160,23.69,74646.3,16.87,3.85,3.53,0,*4B
1534943004.65,64161,23.75,74646.8,16.85,4.11,3.55,0,*44
1534943005.9,64162,23.69,74644.5,16.77,3.33,2.55,0,*4C
1534943007.16,64163,23.69,74642.3,16.77,3.97,2.85,0,*4E
1534943008.36,64164,23.69,74640.8,16.73,3.45,2.27,0,*4A
1534943009.56,64165,23.75,74644.5,16.69,3.45,2.35,0,*43
1534943010.82,64166,23.69,74636.5,16.67,2.81,1.71,0,*44
1534943012.04,64167,23.69,74636.8,16.63,2.51,1.41,0,*4F
1534943013.28,64168,23.75,74642.8,16.59,2.77,1.75,0,*4A
1534943014.51,64169,23.69,74640.0,16.55,2.99,2.05,0,*43
1534943015.78,64170,23.69,74642.5,16.51,4.05,3.41,0,*4D
1534943016.99,64171,23.75,74646.0,16.49,3.45,2.91,0,*4A
1534943018.23,64172,23.75,74642.8,16.47,3.81,3.15,0,*42
1534943019.48,64173,23.69,74642.3,16.43,3.67,3.33,0,*4B
1534943020.71,64174,23.69,74642.3,16.41,4.01,3.81,0,*40
1534943021.92,64175,23.69,74640.8,16.41,4.11,4.15,0,*4A
1534943023.13,64176,23.69,74644.3,16.41,4.27,4.49,0,*45
1534943024.34,64177,23.69,74636.3,16.39,4.67,5.29,0,*48
1534943025.53,64178,23.69,74640.8,16.39,4.07,4.89,0,*4A
1534943026.74,64179,23.75,74642.0,16.39,4.31,5.49,0,*43
1534943027.95,64180,23.75,74642.5,16.37,4.07,5.49,0,*4E
1534943029.19,64181,23.69,74638.0,16.33,5.01,6.75,0,*40
1534943030.42,64182,23.69,74638.8,16.37,5.23,7.11,0,*44
1534943031.63,64183,23.75,74640.3,16.37,5.37,7.41,0,*45
1534943032.84,64184,23.69,74636.3,16.37,5.15,7.29,0,*4C
1534943034.07,64185,23.69,74632.3,16.33,4.45,6.61,0,*40
1534943035.28,64186,23.69,74634.3,16.33,4.57,6.75,0,*45
1534943036.51,64187,23.75,74636.0,16.33,4.79,6.93,0,*40
1534943037.72,64188,23.75,74636.0,16.31,4.71,6.83,0,*44
1534943038.96,64189,23.69,74636.5,16.29,5.05,7.33,0,*44
1534943040.19,64190,23.69,74632.0,16.29,4.93,7.01,0,*43
1534943041.39,64191,23.75,74636.3,16.29,5.37,7.45,0,*4D
1534943042.61,64192,23.75,74634.0,16.27,6.11,8.13,0,*4B
1534943043.86,64193,23.69,74636.3,16.27,6.65,8.55,0,*4B
1534943045.05,64194,23.69,74632.0,16.23,6.75,8.61,0,*4E
1534943046.29,64195,23.69,74634.8,16.27,7.11,8.89,0,*4E
1534943047.52,64196,23.69,74632.0,16.27,7.29,8.93,0,*4D
1534943048.71,64197,23.75,74632.0,16.27,7.45,9.03,0,*4E
1534943049.92,64198,23.69,74632.0,16.23,7.59,9.01,0,*4A
1534943051.16,64199,23.75,74632.3,16.23,6.61,7.87,0,*41
1534943052.35,64200,23.69,74634.5,16.27,6.79,8.05,0,*4A
1534943053.53,64201,23.69,74632.0,16.23,7.09,8.23,0,*4D
1534943054.75,64202,23.75,74636.0,16.21,6.79,7.79,0,*4A
1534943055.96,64203,23.69,74632.5,16.23,7.95,8.87,0,*44
1534943057.2,64204,23.75,74634.0,16.19,7.69,8.59,0,*4A
1534943058.45,64205,23.69,74634.3,16.19,7.27,7.95,0,*4E
1534943059.63,64206,23.75,74636.3,16.19,6.75,7.33,0,*47
1534943060.85,64207,23.75,74632.0,16.17,6.75,7.29,0,*43
1534943062.09,64208,23.75,74632.3,16.15,7.23,7.77,0,*47
1534943063.36,64209,23.75,74634.8,16.13,6.73,7.19,0,*4C
1534943064.56,64210,23.75,74632.0,16.11,7.41,7.87,0,*41
1534943065.76,64211,23.69,74632.8,16.11,7.83,8.19,0,*46
1534943066.97,64212,23.69,74632.0,16.11,7.51,7.73,0,*49
1534943068.17,64213,23.75,74636.0,16.07,6.97,7.27,0,*45
1534943069.4,64214,23.75,74634.5,16.05,7.23,7.51,0,*4F
1534943070.61,64215,23.75,74632.8,16.03,7.15,7.29,0,*42
1534943071.83,64216,23.69,74634.3,16.01,7.19,7.29,0,*4F
1534943073.06,64217,23.75,74634.3,15.99,7.65,7.91,0,*44
1534943074.3,64218,23.69,74634.0,15.97,7.65,7.87,0,*42
1534943075.53,64219,23.75,74632.8,15.97,7.77,7.97,0,*41
1534943076.76,64220,23.75,74638.3,15.97,8.47,8.79,0,*48
1534943077.96,64221,23.69,74634.5,15.95,8.23,8.41,0,*42
1534943079.18,64222,23.75,74636.5,15.93,8.71,8.87,0,*4A
1534943080.39,64223,23.69,74632.5,15.97,9.25,9.43,0,*46
1534943081.63,64224,23.75,74634.8,15.97,9.11,9.15,0,*45
1534943082.88,64225,23.75,74632.3,15.97,9.01,9.11,0,*41
1534943084.11,64226,23.69,74630.5,15.97,9.57,9.67,0,*40
1534943085.35,64227,23.75,74632.0,15.97,10.09,10.19,0,*43
1534943086.57,64228,23.69,74630.8,15.99,10.13,10.27,0,*44
1534943087.79,64229,23.69,74632.5,15.99,9.81,10.03,0,*70
1534943089.03,64230,23.75,74638.3,16.01,10.17,10.31,0,*4C
1534943090.27,64231,23.75,74636.0,16.03,10.27,10.31,0,*4C
1534943091.5,64232,23.75,74640.0,16.03,10.41,10.41,0,*48
1534943092.73,64233,23.75,74642.3,16.07,10.57,10.65,0,*4C
1534943093.95,64234,23.75,74640.0,16.07,10.33,10.27,0,*4F
1534943095.12,64235,23.69,74636.8,16.07,9.71,9.71,0,*4B
1534943096.36,64236,23.69,74638.0,16.07,9.89,9.81,0,*40
1534943097.58,64237,23.75,74640.3,16.07,10.37,10.37,0,*49
1534943098.78,64238,23.75,74636.0,16.11,10.47,10.47,0,*41
1534943099.99,64239,23.75,74638.3,16.13,9.75,9.71,0,*46
1534943101.23,64240,23.75,74642.8,16.13,9.91,9.85,0,*49
1534943102.5,64241,23.69,74636.8,16.13,10.37,10.31,0,*4B
1534943103.72,64242,23.75,74640.0,16.13,9.99,9.91,0,*46
1534943104.98,64243,23.75,74642.5,16.13,10.41,10.37,0,*4E
1534943106.21,64244,23.75,74642.5,16.15,10.85,10.79,0,*4D
1534943107.46,64245,23.75,74642.8,16.17,10.65,10.55,0,*4E
1534943108.7,64246,23.75,74640.3,16.17,11.17,11.07,0,*4F
1534943109.94,64247,23.75,74640.0,16.19,11.47,11.31,0,*40
1534943111.21,64248,23.75,74644.8,16.21,11.23,10.95,0,*49
1534943112.44,64249,23.75,74642.5,16.23,10.83,10.55,0,*4D
1534943113.66,64250,23.69,74638.0,16.27,10.65,10.33,0,*49
1534943114.91,64251,23.75,74642.8,16.27,10.65,10.37,0,*4C
1534943116.16,64252,23.75,74646.3,16.31,11.23,11.03,0,*4D
1534943117.41,64253,23.75,74644.3,16.31,10.95,10.71,0,*44
1534943118.65,64254,23.75,74646.3,16.31,10.57,10.27,0,*4E
1534943119.93,64255,23.75,74646.8,16.33,11.07,10.83,0,*47
1534943121.21,64256,23.75,74646.5,16.37,11.61,11.33,0,*4A
1534943122.48,64257,23.75,74646.3,16.37,11.31,11.03,0,*4D
1534943123.7,64258,23.75,74648.5,16.39,10.89,10.75,0,*4E
1534943124.97,64259,23.69,74646.0,16.41,11.23,10.99,0,*43
1534943126.19,64260,23.75,74646.5,16.43,11.27,11.17,0,*48
1534943127.4,64261,23.75,74644.3,16.43,11.13,11.13,0,*4A
1534943128.65,64262,23.69,74642.8,16.49,11.45,11.37,0,*46
1534943129.93,64263,23.75,74646.3,16.47,11.23,11.23,0,*4C
1534943131.12,64264,23.75,74648.0,16.49,11.55,11.65,0,*46
1534943132.41,64265,23.75,74646.0,16.51,11.37,11.27,0,*4C
1534943133.63,64266,23.69,74640.5,16.53,11.37,11.21,0,*4B
1534943134.88,64267,23.75,74644.5,16.53,11.03,10.75,0,*4D
1534943136.1,64268,23.69,74644.5,16.55,11.13,10.93,0,*4D
1534943137.35,64269,23.75,74644.8,16.59,11.65,11.33,0,*4A
1534943138.57,64270,23.75,74644.3,16.61,10.17,9.81,0,*7D
1534943139.77,64271,23.75,74644.5,16.61,9.95,9.61,0,*40
1534943141.01,64272,23.75,74644.5,16.61,10.27,9.81,0,*7C
1534943142.2,64273,23.75,74648.8,16.61,10.47,10.05,0,*4F
1534943143.44,64274,23.75,74644.5,16.63,10.93,10.37,0,*42
1534943144.65,64275,23.75,74644.8,16.63,10.47,9.95,0,*7A
1534943145.86,64276,23.75,74644.5,16.63,10.05,9.47,0,*70
1534943147.07,64277,23.75,74644.3,16.65,9.89,9.33,0,*48
1534943148.28,64278,23.75,74650.3,16.65,9.81,9.07,0,*48
1534943149.5,64279,23.75,74648.5,16.65,9.81,9.03,0,*4D
1534943150.72,64280,23.75,74648.8,16.65,10.27,9.39,0,*76
1534943151.93,64281,23.75,74644.5,16.69,9.57,8.61,0,*48
1534943153.16,64282,23.75,74648.5,16.69,9.57,8.71,0,*4A
1534943154.41,64283,23.75,74646.3,16.71,9.57,8.71,0,*42
1534943155.64,64284,23.75,74644.3,16.71,8.71,8.15,0,*42
1534943156.86,64285,23.75,74644.5,16.75,9.03,8.61,0,*40
1534943158.09,64286,23.75,74646.3,16.75,9.07,8.75,0,*42
1534943159.35,64287,23.75,74644.5,16.75,7.87,7.61,0,*4F
1534943160.59,64288,23.75,74646.0,16.77,7.55,7.61,0,*4D
1534943161.86,64289,23.75,74642.3,16.81,6.87,6.91,0,*45
1534943163.12,64290,23.75,74640.3,16.77,6.51,6.35,0,*41
1534943164.33,64291,23.75,74642.0,16.81,7.37,7.33,0,*4F
1534943165.56,64292,23.75,74642.0,16.81,6.91,7.09,0,*48
1534943166.77,64293,23.75,74642.8,16.85,7.29,7.59,0,*4A
1534943167.97,64294,23.75,74640.5,16.85,7.51,7.59,0,*42
1534943169.23,64295,23.75,74642.8,16.89,6.73,6.53,0,*45
1534943170.49,64296,23.75,74636.5,16.89,6.39,6.17,0,*48
1534943171.7,64297,23.75,74632.8,16.89,7.41,7.51,0,*44
1534943172.94,64298,23.75,74630.5,16.89,7.05,7.15,0,*4B
1534943174.15,64299,23.75,74626.5,16.91,6.33,6.57,0,*40
1534943175.38,64300,23.75,74626.8,16.91,7.47,7.87,0,*4F
1534943176.64,64301,23.75,74624.5,16.93,7.27,7.73,0,*41
1534943177.9,64302,23.75,74622.5,16.93,6.61,7.27,0,*40
1534943179.08,64303,23.75,74624.0,16.95,7.41,8.19,0,*46
1534943180.29,64304,23.75,74628.5,16.95,8.19,8.89,0,*4A
1534943181.55,64305,23.75,74632.8,16.97,7.95,8.55,0,*43
1534943182.76,64306,23.75,74634.3,16.99,7.77,8.01,0,*43
1534943184.0,64307,23.75,74634.5,16.97,8.29,8.45,0,*48
1534943185.25,64308,23.75,74634.3,16.97,8.71,8.13,0,*49
1534943186.46,64309,23.75,74632.8,16.99,7.11,5.95,0,*4C
1534943187.69,64310,23.75,74634.3,17.01,7.05,5.77,0,*4D
1534943188.89,64311,23.75,74632.8,17.01,6.79,5.63,0,*43
1534943190.07,64312,23.75,74634.3,17.07,6.29,5.45,0,*47
1534943191.28,64313,23.75,74638.0,17.07,6.17,5.59,0,*46
1534943192.47,64314,23.75,74634.5,17.09,5.23,4.57,0,*44
1534943193.65,64315,23.75,74632.0,17.13,4.33,4.27,0,*49
1534943194.89,64316,23.75,74632.5,17.15,3.37,3.81,0,*44
1534943196.09,64317,23.75,74634.8,17.17,3.07,3.25,0,*4A
1534943197.35,64318,23.75,74634.8,17.19,2.43,3.37,0,*49
1534943198.59,64319,23.75,74636.0,17.21,3.03,4.67,0,*44
1534943199.85,64320,23.75,74636.5,17.23,3.41,5.89,0,*4B
1534943201.03,64321,23.75,74636.0,17.29,4.81,7.79,0,*46
1534943202.24,64322,23.75,74634.8,17.39,4.23,7.97,0,*4C
1534943203.44,64323,23.75,74640.5,17.43,3.63,8.23,0,*43
1534943204.66,64324,23.75,74638.0,17.51,3.41,8.65,0,*45
1534943205.87,64325,23.75,74638.3,17.53,3.25,9.11,0,*46
1534943207.12,64326,23.69,74632.5,17.59,2.55,8.97,0,*46
1534943208.35,64327,23.75,74638.0,17.61,2.05,8.47,0,*44
1534943209.61,64328,23.75,74638.3,17.63,2.09,8.51,0,*42
1534943210.85,64329,23.75,74636.0,17.61,-0.23,6.51,0,*58
1534943212.1,64330,23.75,74632.8,17.59,-0.27,6.39,0,*51
1534943213.33,64331,23.75,74634.0,17.57,0.87,7.27,0,*77
1534943214.53,64332,23.75,74628.0,17.53,1.51,7.33,0,*4F
1534943215.74,64333,23.75,74630.3,17.51,2.35,7.55,0,*4D
1534943216.94,64334,23.75,74630.0,17.49,1.93,6.25,0,*4A
1534943218.19,64335,23.75,74630.8,17.43,3.19,6.65,0,*45
1534943219.43,64336,23.75,74626.8,17.39,4.33,6.87,0,*48
1534943220.66,64337,23.75,74626.3,17.35,5.23,6.91,0,*42
1534943221.89,64338,23.75,74622.3,17.35,6.91,7.97,0,*40
1534943223.1,64339,23.75,74616.8,17.35,7.41,8.15,0,*48
1534943224.33,64340,23.75,74618.8,17.33,8.13,8.47,0,*4F
1534943225.56,64341,23.75,74616.3,17.37,8.97,9.11,0,*44
1534943226.79,64342,23.75,74620.0,17.37,8.51,8.59,0,*40
1534943228.01,64343,23.75,74616.5,17.37,8.89,9.11,0,*49
1534943229.19,64344,23.75,74620.8,17.37,8.45,8.69,0,*40
1534943230.4,64345,23.75,74622.3,17.37,8.41,8.69,0,*45
1534943231.59,64346,23.75,74620.8,17.41,7.79,8.05,0,*49
1534943232.8,64347,23.75,74620.8,17.41,8.23,8.47,0,*4E
1534943234.01,64348,23.75,74620.5,17.41,7.69,8.01,0,*42
1534943235.21,64349,23.75,74620.3,17.43,8.45,8.69,0,*4E
1534943236.4,64350,23.75,74620.5,17.45,9.75,10.03,0,*77
1534943237.64,64351,23.75,74620.5,17.51,9.47,9.49,0,*44
1534943238.89,64352,23.75,74620.0,17.55,9.61,9.61,0,*4D
1534943240.13,64353,23.75,74620.3,17.59,9.47,9.53,0,*45
1534943241.36,64354,23.75,74622.8,17.67,9.19,9.29,0,*49
1534943242.61,64355,23.75,74622.0,17.67,7.61,7.83,0,*47
1534943243.82,64356,23.75,74620.8,17.75,7.83,8.15,0,*4B
1534943245.03,64357,23.75,74622.3,17.75,6.21,6.65,0,*4A
1534943246.23,64358,23.75,74622.5,17.77,5.45,6.25,0,*42
1534943247.46,64359,23.75,74622.0,17.77,5.29,6.13,0,*4C
1534943248.67,64360,23.75,74620.8,17.77,7.09,8.15,0,*4E
1534943249.9,64361,23.75,74626.0,17.77,8.65,9.61,0,*48
1534943251.12,64362,23.75,74626.5,17.81,9.75,10.09,0,*74
1534943252.3,64363,23.75,74624.3,17.87,9.75,9.03,0,*41
1534943253.51,64364,23.75,74624.8,17.91,9.07,7.87,0,*46
1534943254.71,64365,23.75,74626.5,17.99,8.47,6.97,0,*4A
1534943255.94,64366,23.75,74626.0,18.03,8.33,6.87,0,*47
1534943257.13,64367,23.75,74628.5,18.03,6.97,5.67,0,*4B
1534943258.36,64368,23.75,74626.5,18.07,6.83,6.13,0,*45
1534943259.57,64369,23.75,74630.5,18.11,4.81,4.07,0,*44
1534943260.83,64370,23.75,74628.5,18.11,3.53,3.15,0,*40
1534943262.04,64371,23.75,74628.3,18.11,2.31,2.65,0,*42
1534943263.27,64372,23.75,74630.3,18.11,2.09,2.91,0,*41
1534943264.52,64373,23.75,74628.5,18.07,1.17,2.65,0,*40
1534943265.73,64374,23.75,74632.0,18.05,1.33,3.59,0,*4D
1534943266.97,64375,23.75,74628.3,18.05,1.63,4.31,0,*40
1534943268.15,64376,23.75,74632.5,18.03,0.97,3.89,0,*7B
1534943269.37,64377,23.75,74632.8,18.01,0.75,4.19,0,*7A
1534943270.64,64378,23.75,74632.0,17.97,1.17,4.71,0,*4E
1534943271.86,64379,23.75,74630.3,17.99,2.25,5.81,0,*4D
1534943273.04,64380,23.75,74634.3,17.91,2.99,6.33,0,*4E
1534943274.24,64381,23.75,74634.3,17.91,4.19,7.11,0,*40
1534943275.44,64382,23.75,74636.3,17.91,4.81,7.19,0,*4A
1534943276.64,64383,23.75,74638.5,17.89,4.89,6.83,0,*48
1534943277.88,64384,23.75,74634.5,17.87,4.67,6.51,0,*4E
1534943279.08,64385,23.75,74636.0,17.89,4.57,6.21,0,*45
1534943280.29,64386,23.75,74638.0,17.85,4.27,5.67,0,*4C
1534943281.5,64387,23.75,74636.0,17.83,4.27,5.51,0,*4E
1534943282.68,64388,23.75,74632.5,17.79,3.81,4.89,0,*4B
1534943283.89,64389,23.75,74634.5,17.79,4.89,5.89,0,*44
1534943285.12,64390,23.75,74636.0,17.75,3.79,4.59,0,*44
1534943286.34,64391,23.75,74636.5,17.69,4.07,4.71,0,*4C
1534943287.57,64392,23.75,74638.8,17.69,3.97,4.79,0,*49
1534943288.78,64393,23.75,74638.5,17.65,3.79,4.23,0,*4B
1534943289.96,64394,23.75,74642.5,17.61,4.23,4.23,0,*40
1534943291.2,64395,23.75,74636.3,17.57,5.81,5.55,0,*4D
1534943292.41,64396,23.75,74632.8,17.57,6.57,5.71,0,*40
1534943293.62,64397,23.75,74634.8,17.57,6.97,5.81,0,*42
1534943294.83,64398,23.75,74636.5,17.57,7.45,5.93,0,*40
1534943296.01,64399,23.75,74636.3,17.57,7.41,5.33,0,*4F
1534943297.24,64400,23.75,74638.3,17.59,6.87,4.45,0,*4D
1534943298.48,64401,23.75,74638.0,17.59,7.33,4.79,0,*4D
1534943299.68,64402,23.75,74632.3,17.57,5.81,3.55,0,*42
1534943300.91,64403,23.75,74632.5,17.59,4.89,3.11,0,*44
1534943302.14,64404,23.75,74630.0,17.59,2.99,2.01,0,*44
1534943303.37,64405,23.75,74628.5,17.57,2.21,2.05,0,*4C
1534943304.63,64406,23.75,74630.8,17.55,2.05,2.81,0,*47
1534943305.84,64407,23.75,74630.0,17.57,2.85,3.93,0,*4E
1534943307.02,64408,23.75,74628.3,17.57,1.79,2.99,0,*4A
1534943308.24,64409,23.75,74624.0,17.57,0.25,1.55,0,*70
1534943309.44,64410,23.75,74624.0,17.57,-0.15,0.95,0,*6B
1534943310.67,64411,23.75,74620.3,17.53,-0.85,0.63,0,*6E
1534943311.91,64412,23.75,74622.5,17.51,-1.99,-0.11,0,*7B
1534943313.12,64413,23.75,74626.5,17.45,-2.15,0.71,0,*53
1534943314.36,64414,23.75,74626.0,17.43,-3.31,-0.23,0,*7F
1534943315.57,64415,23.75,74620.0,17.37,-4.49,-0.23,0,*75
1534943316.82,64416,23.75,74620.3,17.31,-2.95,1.37,0,*6E
1534943318.02,64417,23.75,74622.3,17.29,-0.57,3.37,0,*58